When you browse on this site, cookies collect data to enhance your experience and personalize the content and advertising you see.
Visit our Privacy Policy to learn more. By continuing to use the site, you agree to this use of cookies and data.

Previsão horária em Poroshino

Hoje, 11 Julho, Sábado

Tempo Temperatura Precipitação Vento Pressão Humidade
00:00 +15°C° 0 mm 1 m/s 750 mmHg 99%
01:00 +15°C° 0 mm 2 m/s 750 mmHg 98%
02:00 +15°C° 0 mm 2 m/s 750 mmHg 99%
03:00 +16°C° 0.5 mm 2 m/s 750 mmHg 99%
04:00 +16°C° 0.5 mm 3 m/s 749 mmHg 99%
05:00 +17°C° 0.5 mm 3 m/s 749 mmHg 99%
06:00 +17°C° 0.5 mm 4 m/s 748 mmHg 98%
07:00 +17°C° 0.5 mm 5 m/s 748 mmHg 97%
08:00 +17°C° 0 mm 5 m/s 748 mmHg 97%
09:00 +19°C° 0.2 mm 6 m/s 749 mmHg 84%
10:00 +20°C° 0.2 mm 7 m/s 749 mmHg 72%
11:00 +21°C° 0.2 mm 8 m/s 749 mmHg 59%
12:00 +21°C° 0 mm 7 m/s 750 mmHg 56%
13:00 +21°C° 0 mm 7 m/s 750 mmHg 52%
14:00 +21°C° 0 mm 7 m/s 751 mmHg 48%
15:00 +20°C° 0 mm 7 m/s 751 mmHg 48%
16:00 +20°C° 0 mm 7 m/s 752 mmHg 49%
17:00 +20°C° 0 mm 7 m/s 752 mmHg 49%
18:00 +19°C° 0 mm 6 m/s 753 mmHg 55%
19:00 +16°C° 0 mm 5 m/s 754 mmHg 62%
20:00 +15°C° 0 mm 4 m/s 754 mmHg 68%
21:00 +14°C° 0 mm 4 m/s 755 mmHg 74%
22:00 +13°C° 0 mm 3 m/s 755 mmHg 79%
23:00 +11°C° 0 mm 3 m/s 756 mmHg 84%

Amanhã, 12 Julho, Domingo

Tempo Temperatura Precipitação Vento Pressão Humidade
00:00 +12°C° 0 mm 2 m/s 756 mmHg 88%
01:00 +10°C° 0 mm 2 m/s 756 mmHg 91%
02:00 +10°C° 0 mm 2 m/s 756 mmHg 94%
03:00 +10°C° 0 mm 2 m/s 756 mmHg 93%
04:00 +12°C° 0 mm 2 m/s 756 mmHg 91%
05:00 +12°C° 0 mm 1 m/s 756 mmHg 90%
06:00 +13°C° 0 mm 1 m/s 757 mmHg 83%
07:00 +15°C° 0 mm 1 m/s 757 mmHg 76%
08:00 +16°C° 0 mm 1 m/s 757 mmHg 69%
09:00 +18°C° 0 mm 1 m/s 757 mmHg 63%
10:00 +20°C° 0 mm 1 m/s 757 mmHg 57%
11:00 +21°C° 0 mm 1 m/s 757 mmHg 50%
12:00 +21°C° 0.1 mm 1 m/s 757 mmHg 50%
13:00 +21°C° 0.1 mm 1 m/s 757 mmHg 51%
14:00 +21°C° 0.1 mm 1 m/s 756 mmHg 51%
15:00 +21°C° 0.1 mm 1 m/s 756 mmHg 53%
16:00 +21°C° 0.1 mm 1 m/s 756 mmHg 55%
17:00 +21°C° 0.1 mm 1 m/s 756 mmHg 57%
18:00 +19°C° 0.2 mm 1 m/s 756 mmHg 67%
19:00 +18°C° 0.2 mm 1 m/s 756 mmHg 76%
20:00 +15°C° 0.2 mm 1 m/s 756 mmHg 85%
21:00 +15°C° 0 mm 1 m/s 756 mmHg 88%
22:00 +14°C° 0 mm 1 m/s 756 mmHg 90%
23:00 +13°C° 0 mm 1 m/s 756 mmHg 93%

Depois de amanhã, 13 Julho, Segunda-feira

Tempo Temperatura Precipitação Vento Pressão Humidade
00:00 +12°C° 0 mm 1 m/s 756 mmHg 93%
01:00 +12°C° 0 mm 1 m/s 756 mmHg 94%
02:00 +10°C° 0 mm 2 m/s 756 mmHg 95%
03:00 +10°C° 0 mm 2 m/s 755 mmHg 95%
04:00 +12°C° 0 mm 2 m/s 755 mmHg 94%
05:00 +12°C° 0 mm 2 m/s 755 mmHg 94%
06:00 +13°C° 0 mm 2 m/s 755 mmHg 86%
07:00 +15°C° 0 mm 2 m/s 755 mmHg 78%
08:00 +17°C° 0 mm 2 m/s 755 mmHg 70%
09:00 +18°C° 0 mm 2 m/s 755 mmHg 62%
10:00 +19°C° 0 mm 2 m/s 755 mmHg 55%
11:00 +20°C° 0 mm 2 m/s 754 mmHg 48%
12:00 +21°C° 0 mm 2 m/s 754 mmHg 45%
13:00 +21°C° 0 mm 2 m/s 754 mmHg 42%
14:00 +23°C° 0 mm 2 m/s 754 mmHg 38%
15:00 +23°C° 0 mm 2 m/s 754 mmHg 40%
16:00 +23°C° 0 mm 2 m/s 753 mmHg 42%
17:00 +21°C° 0 mm 3 m/s 753 mmHg 43%
18:00 +20°C° 0 mm 2 m/s 753 mmHg 54%
19:00 +18°C° 0 mm 2 m/s 753 mmHg 64%
20:00 +18°C° 0 mm 1 m/s 753 mmHg 74%
21:00 +15°C° 0 mm 1 m/s 753 mmHg 78%
22:00 +14°C° 0 mm 1 m/s 753 mmHg 81%
23:00 +13°C° 0 mm 1 m/s 753 mmHg 84%

14 Julho, Terça-feira

Tempo Temperatura Precipitação Vento Pressão Humidade
00:00 +12°C° 0 mm 1 m/s 754 mmHg 87%
01:00 +12°C° 0 mm 2 m/s 754 mmHg 90%
02:00 +10°C° 0 mm 2 m/s 754 mmHg 93%
03:00 +12°C° 0 mm 2 m/s 754 mmHg 92%
04:00 +12°C° 0 mm 2 m/s 754 mmHg 91%
05:00 +12°C° 0 mm 2 m/s 754 mmHg 91%
06:00 +14°C° 0 mm 2 m/s 755 mmHg 81%
07:00 +14°C° 0 mm 3 m/s 755 mmHg 71%
08:00 +17°C° 0 mm 3 m/s 755 mmHg 61%
09:00 +18°C° 0 mm 3 m/s 755 mmHg 57%
10:00 +19°C° 0 mm 3 m/s 755 mmHg 52%
11:00 +19°C° 0 mm 3 m/s 755 mmHg 48%
12:00 +20°C° 0 mm 3 m/s 755 mmHg 47%
13:00 +21°C° 0 mm 3 m/s 755 mmHg 45%
14:00 +21°C° 0 mm 3 m/s 755 mmHg 44%
15:00 +21°C° 0 mm 3 m/s 755 mmHg 45%
16:00 +21°C° 0 mm 2 m/s 755 mmHg 45%
17:00 +21°C° 0 mm 2 m/s 755 mmHg 45%
18:00 +19°C° 0 mm 2 m/s 755 mmHg 53%
19:00 +19°C° 0 mm 1 m/s 755 mmHg 62%
20:00 +16°C° 0 mm 1 m/s 755 mmHg 70%
21:00 +14°C° 0 mm 0 m/s 755 mmHg 73%
22:00 +13°C° 0 mm 0 m/s 755 mmHg 76%
23:00 +11°C° 0 mm 0 m/s 755 mmHg 79%

15 Julho, Quarta-feira

Tempo Temperatura Precipitação Vento Pressão Humidade
00:00 +11°C° 0 mm 0 m/s 756 mmHg 81%
01:00 +10°C° 0 mm 0 m/s 756 mmHg 83%
02:00 +10°C° 0 mm 0 m/s 756 mmHg 85%
03:00 +11°C° 0 mm 0 m/s 756 mmHg 84%
04:00 +11°C° 0 mm 0 m/s 756 mmHg 83%
05:00 +11°C° 0 mm 0 m/s 756 mmHg 82%
06:00 +14°C° 0 mm 0 m/s 756 mmHg 74%
07:00 +16°C° 0 mm 0 m/s 756 mmHg 66%
08:00 +19°C° 0 mm 0 m/s 756 mmHg 58%
09:00 +20°C° 0 mm 0 m/s 756 mmHg 53%
10:00 +23°C° 0 mm 1 m/s 755 mmHg 47%
11:00 +25°C° 0 mm 1 m/s 755 mmHg 42%
12:00 +25°C° 0 mm 1 m/s 755 mmHg 40%
13:00 +25°C° 0 mm 1 m/s 755 mmHg 38%
14:00 +26°C° 0 mm 1 m/s 754 mmHg 36%
15:00 +25°C° 0 mm 1 m/s 754 mmHg 38%
16:00 +25°C° 0 mm 1 m/s 754 mmHg 40%
17:00 +24°C° 0 mm 1 m/s 754 mmHg 42%
18:00 +23°C° 0 mm 1 m/s 754 mmHg 50%
19:00 +21°C° 0 mm 1 m/s 754 mmHg 58%
20:00 +19°C° 0 mm 1 m/s 754 mmHg 67%
21:00 +18°C° 0 mm 1 m/s 754 mmHg 69%
22:00 +16°C° 0 mm 1 m/s 753 mmHg 72%
23:00 +14°C° 0 mm 1 m/s 753 mmHg 75%

16 Julho, Quinta-feira

Tempo Temperatura Precipitação Vento Pressão Humidade
00:00 +14°C° 0 mm 1 m/s 753 mmHg 78%
01:00 +14°C° 0 mm 1 m/s 753 mmHg 80%
02:00 +13°C° 0 mm 1 m/s 753 mmHg 83%
03:00 +13°C° 0 mm 1 m/s 753 mmHg 83%
04:00 +13°C° 0 mm 1 m/s 752 mmHg 82%
05:00 +14°C° 0 mm 1 m/s 752 mmHg 82%
06:00 +16°C° 0 mm 1 m/s 752 mmHg 74%
07:00 +19°C° 0 mm 1 m/s 751 mmHg 65%
08:00 +21°C° 0 mm 1 m/s 751 mmHg 57%
09:00 +23°C° 0 mm 1 m/s 751 mmHg 52%
10:00 +24°C° 0 mm 1 m/s 750 mmHg 46%
11:00 +26°C° 0 mm 1 m/s 750 mmHg 41%
12:00 +26°C° 0 mm 1 m/s 749 mmHg 39%
13:00 +26°C° 0 mm 1 m/s 749 mmHg 38%
14:00 +27°C° 0 mm 1 m/s 748 mmHg 37%
15:00 +26°C° 0 mm 1 m/s 748 mmHg 40%
16:00 +26°C° 0 mm 1 m/s 748 mmHg 44%
17:00 +25°C° 0 mm 1 m/s 748 mmHg 48%
18:00 +23°C° 0 mm 1 m/s 747 mmHg 55%
19:00 +22°C° 0 mm 1 m/s 747 mmHg 63%
20:00 +20°C° 0 mm 1 m/s 747 mmHg 70%
21:00 +19°C° 0 mm 1 m/s 747 mmHg 73%
22:00 +17°C° 0 mm 2 m/s 747 mmHg 76%
23:00 +15°C° 0 mm 2 m/s 747 mmHg 79%
Mostrar mais